Total_Precipitation_Accumulation
1.11 1.05 1.01 0.98 0.85 0.79 0.75 0.81 0.81 0.74 0.69 0.64 0.54 0.44 0.40 0.39 0.37 0.38 0.37 0.37 0.41 0.51 0.66 0.77 0.78 0.77 0.78 0.84 0.83 0.79 0.76 0.68 0.61 0.55 0.53 0.53 0.50 0.49 0.54 0.57 0.60 0.62 0.65
1.28 1.21 1.07 1.01 0.96 0.87 0.82 0.86 0.90 0.83 0.79 0.72 0.64 0.55 0.48 0.46 0.39 0.37 0.38 0.38 0.38 0.46 0.61 0.77 0.89 0.99 1.02 1.08 1.05 0.98 0.88 0.79 0.72 0.69 0.67 0.66 0.59 0.56 0.59 0.57 0.58 0.60 0.62
1.37 1.36 1.26 1.09 0.99 1.01 0.98 0.97 1.01 1.02 0.92 0.79 0.72 0.66 0.59 0.52 0.46 0.42 0.41 0.39 0.37 0.35 0.46 0.64 0.84 0.96 1.04 1.14 1.22 1.20 1.04 0.90 0.81 0.76 0.75 0.77 0.72 0.68 0.65 0.66 0.67 0.68 0.69
1.46 1.51 1.42 1.32 1.22 1.22 1.21 1.14 1.05 0.97 0.89 0.78 0.72 0.70 0.66 0.61 0.54 0.53 0.52 0.45 0.39 0.33 0.36 0.46 0.60 0.78 0.93 1.04 1.17 1.34 1.20 1.06 0.93 0.83 0.82 0.87 0.89 0.82 0.79 0.80 0.79 0.78 0.78
1.67 1.68 1.62 1.52 1.49 1.45 1.42 1.33 1.19 1.05 0.93 0.83 0.77 0.78 0.77 0.72 0.67 0.63 0.57 0.49 0.45 0.42 0.41 0.40 0.42 0.52 0.65 0.87 1.04 1.25 1.36 1.28 1.12 0.99 0.91 0.88 0.88 0.90 0.93 0.96 0.95 0.94 0.96
1.99 1.89 1.85 1.77 1.72 1.62 1.54 1.51 1.38 1.23 1.07 1.00 0.96 0.88 0.82 0.76 0.74 0.70 0.65 0.58 0.52 0.50 0.53 0.53 0.51 0.50 0.55 0.69 0.94 1.14 1.32 1.44 1.32 1.11 1.00 0.95 0.95 0.99 1.06 1.12 1.16 1.20 1.21
2.25 2.14 2.00 2.00 1.94 1.78 1.61 1.59 1.58 1.45 1.31 1.29 1.23 1.01 0.86 0.78 0.74 0.69 0.72 0.72 0.63 0.56 0.56 0.62 0.67 0.63 0.54 0.54 0.66 0.84 1.04 1.26 1.41 1.39 1.24 1.11 1.09 1.15 1.25 1.36 1.43 1.44 1.42
2.47 2.30 2.15 2.09 2.07 2.01 1.80 1.67 1.71 1.67 1.55 1.51 1.51 1.44 1.23 1.03 0.81 0.71 0.72 0.72 0.69 0.67 0.60 0.58 0.59 0.63 0.63 0.55 0.52 0.58 0.69 0.92 1.24 1.53 1.64 1.54 1.44 1.43 1.51 1.63 1.71 1.75 1.75
2.75 2.55 2.35 2.31 2.26 2.23 2.12 1.95 1.86 1.83 1.78 1.70 1.69 1.85 1.63 1.30 0.97 0.81 0.78 0.77 0.74 0.76 0.74 0.68 0.63 0.62 0.65 0.61 0.59 0.58 0.60 0.72 1.03 1.40 1.74 1.89 1.87 1.87 1.99 2.11 2.15 2.21 2.17
2.76 2.76 2.62 2.44 2.37 2.33 2.27 2.32 2.32 2.18 2.07 1.88 1.75 1.65 1.60 1.43 1.35 1.12 0.89 0.86 0.83 0.78 0.82 0.80 0.74 0.70 0.66 0.68 0.69 0.71 0.73 0.78 1.00 1.39 1.76 2.03 2.17 2.37 2.61 2.69 2.68 2.69 2.56
2.56 2.68 2.69 2.56 2.32 2.20 2.15 2.19 2.28 2.33 2.21 2.00 1.85 1.73 1.64 1.46 1.36 1.38 1.18 0.99 0.94 0.83 0.80 0.84 0.87 0.88 0.87 0.85 0.85 0.90 0.96 0.99 1.18 1.53 1.92 2.29 2.57 2.84 3.08 3.22 3.19 3.12 2.98
2.38 2.39 2.42 2.39 2.32 2.19 2.08 2.11 2.22 2.31 2.33 2.25 2.05 1.84 1.74 1.63 1.42 1.42 1.38 1.22 1.18 1.04 0.92 0.92 0.96 1.01 1.02 1.04 1.01 1.12 1.15 1.23 1.36 1.59 1.98 2.36 2.64 2.85 3.07 3.38 3.53 3.45 3.38
2.28 2.26 2.33 2.27 2.24 2.16 2.13 2.09 2.11 2.12 2.16 2.21 2.14 1.96 1.76 1.61 1.51 1.57 1.61 1.49 1.38 1.24 1.17 1.08 1.02 1.01 1.02 1.06 1.12 1.26 1.19 1.24 1.28 1.45 1.80 2.15 2.29 2.37 2.52 2.77 3.09 3.26 3.30
2.18 2.15 2.24 2.22 2.18 2.17 2.14 2.10 2.05 2.00 2.00 2.02 1.98 1.90 1.76 1.59 1.50 1.54 1.67 1.81 1.79 1.53 1.30 1.19 1.10 1.07 1.07 1.07 1.15 1.28 1.15 1.31 1.31 1.38 1.56 1.74 1.73 1.67 1.76 1.96 2.20 2.50 2.71
2.10 2.02 2.05 2.07 2.04 2.03 2.05 2.05 2.01 1.90 1.85 1.86 1.81 1.74 1.66 1.53 1.44 1.44 1.52 1.72 2.01 1.97 1.59 1.26 1.18 1.13 1.12 1.11 1.21 1.13 1.03 1.29 1.34 1.32 1.34 1.35 1.32 1.31 1.42 1.55 1.70 1.96 2.19
2.01 1.89 1.85 1.89 1.91 1.88 1.88 1.96 1.91 1.82 1.79 1.73 1.69 1.66 1.60 1.51 1.48 1.48 1.53 1.60 1.74 1.90 1.75 1.32 1.13 1.08 1.10 1.09 1.21 1.08 1.04 1.28 1.27 1.25 1.22 1.19 1.18 1.22 1.32 1.46 1.52 1.65 1.89
1.84 1.86 1.76 1.78 1.84 1.83 1.79 1.82 1.86 1.81 1.74 1.66 1.60 1.58 1.54 1.48 1.49 1.46 1.49 1.56 1.61 1.68 1.66 1.31 1.10 1.07 1.14 1.14 1.15 1.08 1.03 1.00 0.99 1.09 1.07 1.06 1.05 1.09 1.21 1.34 1.45 1.52 1.65
1.58 1.62 1.63 1.65 1.67 1.66 1.62 1.61 1.65 1.69 1.68 1.60 1.56 1.56 1.53 1.53 1.60 1.61 1.61 1.60 1.59 1.56 1.55 1.40 1.17 1.07 1.04 0.99 0.97 0.98 0.97 0.95 0.89 1.04 1.02 0.99 1.02 1.07 1.15 1.20 1.26 1.37 1.46
1.49 1.51 1.49 1.55 1.58 1.54 1.54 1.50 1.47 1.52 1.57 1.56 1.53 1.55 1.53 1.55 1.62 1.63 1.62 1.59 1.52 1.48 1.47 1.43 1.27 1.13 1.10 1.02 1.00 0.98 0.95 0.93 0.86 0.95 0.99 0.98 1.01 1.04 1.08 1.16 1.20 1.21 1.26
1.33 1.35 1.37 1.37 1.42 1.46 1.49 1.51 1.52 1.48 1.49 1.52 1.52 1.50 1.47 1.47 1.45 1.43 1.42 1.40 1.41 1.43 1.44 1.46 1.36 1.22 1.16 1.12 1.12 1.14 1.09 0.97 0.91 0.82 0.89 0.89 0.93 0.96 0.97 1.02 1.08 1.09 1.11
1.23 1.27 1.30 1.31 1.28 1.33 1.42 1.49 1.54 1.56 1.54 1.54 1.55 1.50 1.40 1.36 1.29 1.25 1.23 1.22 1.24 1.36 1.45 1.50 1.43 1.29 1.16 1.15 1.15 1.07 1.09 1.05 0.99 0.88 0.84 0.80 0.78 0.77 0.79 0.88 0.98 1.08 1.16
1.21 1.25 1.33 1.37 1.36 1.38 1.60 1.66 1.60 1.57 1.55 1.50 1.45 1.35 1.29 1.28 1.22 1.24 1.23 1.20 1.25 1.39 1.52 1.50 1.37 1.20 1.00 0.95 1.02 1.13 1.21 1.26 1.19 0.90 0.85 0.88 0.84 0.83 0.77 0.79 0.99 1.11 1.22
1.31 1.39 1.43 1.53 1.52 1.51 1.59 1.48 1.47 1.42 1.44 1.40 1.30 1.21 1.15 1.07 1.06 0.97 1.07 1.14 1.14 1.22 1.28 1.25 1.19 1.02 0.94 0.92 1.14 1.35 1.33 1.25 1.04 0.83 0.88 0.97 0.89 0.88 0.83 0.89 1.07 1.09 1.21
1.32 1.42 1.45 1.49 1.49 1.49 1.50 1.38 1.35 1.20 1.18 1.19 1.14 1.07 1.02 0.99 0.97 0.97 1.01 1.08 0.98 0.93 0.93 0.88 0.90 0.93 0.95 0.98 1.15 1.39 1.39 1.36 1.15 0.97 0.95 1.06 0.92 0.90 0.85 0.89 1.05 1.02 1.07
1.22 1.27 1.30 1.30 1.25 1.25 1.28 1.21 1.20 1.10 1.07 1.04 1.01 1.01 1.02 0.95 1.05 1.17 1.14 1.09 0.95 0.83 0.87 0.95 1.00 1.00 1.06 1.07 1.15 1.46 1.61 1.63 1.45 1.11 0.94 0.95 0.86 0.85 0.91 0.95 1.03 1.10 1.08
1.04 1.02 1.01 0.99 0.95 0.94 1.03 1.01 1.01 0.92 0.94 0.93 0.93 0.97 1.09 1.04 1.12 1.21 1.07 1.04 0.96 0.83 0.80 0.81 0.81 0.81 0.80 0.86 1.02 1.20 1.61 1.91 1.62 1.27 0.91 0.99 1.00 1.06 1.30 1.03 0.98 1.03 1.07